Time,TemperatureF,DewpointF,PressureIn,WindDirection,WindDirectionDegrees,WindSpeedMPH,WindSpeedGustMPH,Humidity,HourlyPrecipIn,Conditions,Clouds,dailyrainin,SoftwareType,DateUTC
2013-04-22 00:23:00,57.0,46.0,-100.00,ENE,58,20.0,-999.0,68,0.00,,,-99.99,,2013-04-22 04:23:00,
2013-04-22 00:33:00,57.0,46.0,-100.00,ENE,58,20.0,-999.0,68,0.00,,,-99.99,,2013-04-22 04:33:00,
2013-04-22 00:43:00,57.0,46.0,-100.00,ENE,58,20.0,-999.0,68,0.00,,,-99.99,,2013-04-22 04:43:00,
2013-04-22 01:12:00,55.0,44.0,-100.00,NE,50,18.0,-999.0,66,0.00,,,-99.99,,2013-04-22 05:12:00,
2013-04-22 01:23:00,55.0,44.0,-100.00,NE,50,18.0,-999.0,66,0.00,,,-99.99,,2013-04-22 05:23:00,
2013-04-22 01:33:00,55.0,44.0,-100.00,NE,50,18.0,-999.0,66,0.00,,,-99.99,,2013-04-22 05:33:00,
2013-04-22 01:42:00,55.0,44.0,-100.00,NE,50,18.0,-999.0,66,0.00,,,-99.99,,2013-04-22 05:42:00,
2013-04-22 02:21:00,52.0,40.0,-100.00,NE,41,13.0,-999.0,63,0.00,,,-99.99,,2013-04-22 06:21:00,
2013-04-22 02:32:00,52.0,40.0,-100.00,NE,41,13.0,-999.0,63,0.00,,,-99.99,,2013-04-22 06:32:00,
2013-04-22 02:42:00,52.0,40.0,-100.00,NE,41,13.0,-999.0,63,0.00,,,-99.99,,2013-04-22 06:42:00,
2013-04-22 03:22:00,50.0,36.0,-100.00,NNE,31,12.0,-999.0,58,0.00,,,-99.99,,2013-04-22 07:22:00,
2013-04-22 03:32:00,50.0,36.0,-100.00,NNE,31,12.0,-999.0,58,0.00,,,-99.99,,2013-04-22 07:32:00,
2013-04-22 03:42:00,50.0,36.0,-100.00,NNE,31,12.0,-999.0,58,0.00,,,-99.99,,2013-04-22 07:42:00,
2013-04-22 04:22:00,49.0,36.0,-100.00,NE,38,13.0,-999.0,60,0.00,,,-99.99,,2013-04-22 08:22:00,
2013-04-22 04:32:00,49.0,36.0,-100.00,NE,38,13.0,-999.0,60,0.00,,,-99.99,,2013-04-22 08:32:00,
2013-04-22 04:42:00,49.0,36.0,-100.00,NE,38,13.0,-999.0,60,0.00,,,-99.99,,2013-04-22 08:42:00,
2013-04-22 05:22:00,49.0,40.0,-100.00,NNE,32,15.0,-999.0,72,0.00,,,-99.99,,2013-04-22 09:22:00,
2013-04-22 05:33:00,49.0,40.0,-100.00,NNE,32,15.0,-999.0,72,0.00,,,-99.99,,2013-04-22 09:33:00,
2013-04-22 05:42:00,49.0,40.0,-100.00,NNE,32,15.0,-999.0,72,0.00,,,-99.99,,2013-04-22 09:42:00,
2013-04-22 06:23:00,48.0,41.0,-100.00,NNE,28,11.0,-999.0,77,0.00,,,-99.99,,2013-04-22 10:23:00,
2013-04-22 06:32:00,48.0,41.0,-100.00,NNE,28,11.0,-999.0,77,0.00,,,-99.99,,2013-04-22 10:32:00,
2013-04-22 06:42:00,48.0,41.0,-100.00,NNE,28,11.0,-999.0,77,0.00,,,-99.99,,2013-04-22 10:42:00,
2013-04-22 07:22:00,47.0,42.0,-100.00,NNE,29,12.0,-999.0,82,0.00,,,-99.99,,2013-04-22 11:22:00,
2013-04-22 07:33:00,47.0,42.0,-100.00,NNE,29,12.0,-999.0,82,0.00,,,-99.99,,2013-04-22 11:33:00,
2013-04-22 07:42:00,47.0,42.0,-100.00,NNE,29,12.0,-999.0,82,0.00,,,-99.99,,2013-04-22 11:42:00,
2013-04-22 08:22:00,47.0,42.0,-100.00,NNE,23,11.0,-999.0,84,0.00,,,-99.99,,2013-04-22 12:22:00,
2013-04-22 08:32:00,47.0,42.0,-100.00,NNE,23,11.0,-999.0,84,0.00,,,-99.99,,2013-04-22 12:32:00,
2013-04-22 08:42:00,47.0,42.0,-100.00,NNE,23,11.0,-999.0,84,0.00,,,-99.99,,2013-04-22 12:42:00,
2013-04-22 09:22:00,47.0,43.0,-100.00,NE,34,11.0,-999.0,85,0.00,,,-99.99,,2013-04-22 13:22:00,
2013-04-22 09:32:00,47.0,43.0,-100.00,NE,34,11.0,-999.0,85,0.00,,,-99.99,,2013-04-22 13:32:00,
2013-04-22 09:42:00,47.0,43.0,-100.00,NE,34,11.0,-999.0,85,0.00,,,-99.99,,2013-04-22 13:42:00,
2013-04-22 10:22:00,49.0,44.0,-100.00,NNE,25,9.0,-999.0,83,0.00,,,-99.99,,2013-04-22 14:22:00,
2013-04-22 10:33:00,49.0,44.0,-100.00,NNE,25,9.0,-999.0,83,0.00,,,-99.99,,2013-04-22 14:33:00,
2013-04-22 10:42:00,49.0,44.0,-100.00,NNE,25,9.0,-999.0,83,0.00,,,-99.99,,2013-04-22 14:42:00,
2013-04-22 11:22:00,52.0,46.0,-100.00,NNE,23,11.0,-999.0,78,0.00,,,-99.99,,2013-04-22 15:22:00,
2013-04-22 11:33:00,52.0,46.0,-100.00,NNE,23,11.0,-999.0,78,0.00,,,-99.99,,2013-04-22 15:33:00,
2013-04-22 11:43:00,52.0,46.0,-100.00,NNE,23,11.0,-999.0,78,0.00,,,-99.99,,2013-04-22 15:43:00,
2013-04-22 12:23:00,55.0,46.0,-100.00,NNE,20,13.0,-999.0,72,0.00,,,-99.99,,2013-04-22 16:23:00,
2013-04-22 12:33:00,55.0,46.0,-100.00,NNE,20,13.0,-999.0,72,0.00,,,-99.99,,2013-04-22 16:33:00,
2013-04-22 12:42:00,55.0,46.0,-100.00,NNE,20,13.0,-999.0,72,0.00,,,-99.99,,2013-04-22 16:42:00,
2013-04-22 13:22:00,60.0,48.0,-100.00,NNE,24,10.0,-999.0,66,0.00,,,-99.99,,2013-04-22 17:22:00,
2013-04-22 13:32:00,60.0,48.0,-100.00,NNE,24,10.0,-999.0,66,0.00,,,-99.99,,2013-04-22 17:32:00,
2013-04-22 13:43:00,60.0,48.0,-100.00,NNE,24,10.0,-999.0,66,0.00,,,-99.99,,2013-04-22 17:43:00,
2013-04-22 14:22:00,62.0,50.0,-100.00,NNE,16,8.0,-999.0,64,0.00,,,-99.99,,2013-04-22 18:22:00,
2013-04-22 14:32:00,62.0,50.0,-100.00,NNE,16,8.0,-999.0,64,0.00,,,-99.99,,2013-04-22 18:32:00,
2013-04-22 14:42:00,62.0,50.0,-100.00,NNE,16,8.0,-999.0,64,0.00,,,-99.99,,2013-04-22 18:42:00,
2013-04-22 15:22:00,64.0,50.0,-100.00,NE,48,13.0,-999.0,61,0.00,,,-99.99,,2013-04-22 19:22:00,
2013-04-22 15:32:00,64.0,50.0,-100.00,NE,48,13.0,-999.0,61,0.00,,,-99.99,,2013-04-22 19:32:00,
2013-04-22 15:42:00,64.0,50.0,-100.00,NE,48,13.0,-999.0,61,0.00,,,-99.99,,2013-04-22 19:42:00,
2013-04-22 16:22:00,66.0,51.0,-100.00,NNE,15,11.0,-999.0,58,0.00,,,-99.99,,2013-04-22 20:22:00,
2013-04-22 16:32:00,66.0,51.0,-100.00,NNE,15,11.0,-999.0,58,0.00,,,-99.99,,2013-04-22 20:32:00,
2013-04-22 16:42:00,66.0,51.0,-100.00,NNE,15,11.0,-999.0,58,0.00,,,-99.99,,2013-04-22 20:42:00,
2013-04-22 17:12:00,66.0,50.0,-100.00,NNE,20,11.0,-999.0,55,0.00,,,-99.99,,2013-04-22 21:12:00,
2013-04-22 17:22:00,66.0,50.0,-100.00,NNE,20,11.0,-999.0,55,0.00,,,-99.99,,2013-04-22 21:22:00,
2013-04-22 17:33:00,66.0,50.0,-100.00,NNE,20,11.0,-999.0,55,0.00,,,-99.99,,2013-04-22 21:33:00,
2013-04-22 17:43:00,66.0,50.0,-100.00,NNE,20,11.0,-999.0,55,0.00,,,-99.99,,2013-04-22 21:43:00,
2013-04-22 18:22:00,66.0,50.0,-100.00,NNE,13,11.0,-999.0,56,0.00,,,-99.99,,2013-04-22 22:22:00,
2013-04-22 18:33:00,66.0,50.0,-100.00,NNE,13,11.0,-999.0,56,0.00,,,-99.99,,2013-04-22 22:33:00,
2013-04-22 18:42:00,66.0,50.0,-100.00,NNE,13,11.0,-999.0,56,0.00,,,-99.99,,2013-04-22 22:42:00,
2013-04-22 19:22:00,65.0,49.0,-100.00,NNE,17,12.0,-999.0,56,0.00,,,-99.99,,2013-04-22 23:22:00,
2013-04-22 19:33:00,65.0,49.0,-100.00,NNE,17,12.0,-999.0,56,0.00,,,-99.99,,2013-04-22 23:33:00,
2013-04-22 19:42:00,65.0,49.0,-100.00,NNE,17,12.0,-999.0,56,0.00,,,-99.99,,2013-04-22 23:42:00,
2013-04-22 20:22:00,63.0,49.0,-100.00,NNE,30,10.0,-999.0,59,0.00,,,-99.99,,2013-04-23 00:22:00,
2013-04-22 20:32:00,63.0,49.0,-100.00,NNE,30,10.0,-999.0,59,0.00,,,-99.99,,2013-04-23 00:32:00,
2013-04-22 20:42:00,63.0,49.0,-100.00,NNE,30,10.0,-999.0,59,0.00,,,-99.99,,2013-04-23 00:42:00,
2013-04-22 21:11:00,61.0,48.0,-100.00,NNE,29,10.0,-999.0,62,0.00,,,-99.99,,2013-04-23 01:11:00,
2013-04-22 21:22:00,61.0,48.0,-100.00,NNE,29,10.0,-999.0,62,0.00,,,-99.99,,2013-04-23 01:22:00,
2013-04-22 21:32:00,61.0,48.0,-100.00,NNE,29,10.0,-999.0,62,0.00,,,-99.99,,2013-04-23 01:32:00,
2013-04-22 21:42:00,61.0,48.0,-100.00,NNE,29,10.0,-999.0,62,0.00,,,-99.99,,2013-04-23 01:42:00,
2013-04-22 22:22:00,59.0,48.0,-100.00,NNE,29,11.0,-999.0,65,0.00,,,-99.99,,2013-04-23 02:22:00,
2013-04-22 22:32:00,59.0,48.0,-100.00,NNE,29,11.0,-999.0,65,0.00,,,-99.99,,2013-04-23 02:32:00,
2013-04-22 22:42:00,59.0,48.0,-100.00,NNE,29,11.0,-999.0,65,0.00,,,-99.99,,2013-04-23 02:42:00,
2013-04-22 23:22:00,58.0,49.0,-100.00,NE,35,9.0,-999.0,71,0.00,,,-99.99,,2013-04-23 03:22:00,
2013-04-22 23:33:00,58.0,49.0,-100.00,NE,35,9.0,-999.0,71,0.00,,,-99.99,,2013-04-23 03:33:00,
2013-04-22 23:43:00,58.0,49.0,-100.00,NE,35,9.0,-999.0,71,0.00,,,-99.99,,2013-04-23 03:43:00,